Temp
79 82 78 79 82 81 83 83 82 81 77 76 77 76 75 74 75 74 73 74 75 75 78 76 78 79 78 79 79 79 78 77 77
76 80 76 79 81 78 83 83 82 81 78 77 77 77 77 75 74 75 74 76 76 77 77 78 78 78 79 79 78 78 77 77 76
75 79 77 81 78 80 84 85 83 82 80 77 77 78 78 78 76 76 76 76 76 76 77 78 78 78 77 78 78 78 77 76 77
70 76 72 70 74 77 77 79 84 81 79 78 78 78 78 78 76 76 76 75 77 76 77 78 77 76 76 76 77 77 76 76 76
67 72 69 70 71 72 73 74 72 76 79 79 79 79 78 78 77 78 76 75 76 76 75 76 76 76 75 76 76 76 76 76 76
70 72 71 69 69 68 70 71 71 70 74 79 80 79 78 79 78 77 78 76 75 75 75 75 76 76 75 75 75 75 75 75 75
68 70 71 70 70 69 68 69 71 70 72 74 80 80 78 78 77 78 78 76 75 75 75 75 75 76 76 75 75 76 76 76 75
69 70 67 66 69 68 68 69 69 70 71 71 73 79 79 77 78 76 75 74 75 76 75 76 75 75 75 76 73 73 71 74 74
63 64 64 65 65 67 68 68 69 70 70 69 69 66 77 75 75 75 75 74 74 75 75 74 74 74 74 69 71 66 68 70 70
64 65 63 63 64 64 67 67 68 67 67 69 67 67 71 74 73 73 74 74 73 73 73 73 72 72 70 65 61 63 65 68 68
63 64 62 61 62 65 66 67 68 68 67 67 66 67 70 70 72 72 72 72 71 71 72 70 69 69 66 61 59 60 62 65 67
62 61 61 60 62 64 64 64 67 68 68 68 67 69 68 70 70 70 70 69 69 70 69 68 68 68 64 58 53 55 58 65 66
63 63 61 61 62 61 61 62 65 66 66 67 67 68 69 69 68 67 67 67 65 64 63 60 59 56 55 55 53 54 56 60 64
62 61 60 60 59 58 59 62 65 65 65 65 67 67 67 67 66 65 64 63 62 60 59 58 56 55 54 54 54 52 53 55 57
61 59 60 60 58 57 58 60 65 62 61 65 66 66 66 66 65 64 63 61 60 59 58 57 56 55 54 54 53 53 53 54 55
60 60 59 60 58 57 58 59 61 60 60 63 63 63 63 64 63 63 62 61 60 59 58 57 56 56 55 54 55 54 54 55 57
60 61 60 61 59 58 56 57 58 58 61 61 61 61 60 62 63 63 63 62 61 61 61 60 59 57 56 54 55 56 57 57 56
63 61 62 60 58 59 59 59 58 59 59 61 59 60 58 58 58 58 54 51 55 56 52 55 60 60 60 58 57 56 53 54 56
60 59 59 59 59 59 61 61 60 60 60 60 59 59 59 58 58 57 56 56 53 49 48 47 46 47 56 52 50 48 47 47 49
60 60 59 59 60 60 61 61 62 61 61 62 60 59 59 58 58 58 56 57 58 54 52 50 48 48 49 50 49 47 46 46 46
MSLP
1006.46 1006.31 1006.57 1007.53 1008.14 1008.80 1009.35 1009.90 1010.68 1011.58 1012.15 1012.72 1013.22 1013.50 1014.20 1014.65 1015.14 1015.66 1016.14 1016.48 1016.72 1016.87 1016.79 1016.73 1016.62 1016.83 1017.30 1017.75 1018.09 1018.22 1018.20 1018.45 1018.69
1006.49 1006.29 1006.72 1007.12 1007.60 1008.57 1008.69 1009.44 1010.03 1010.74 1011.45 1012.24 1012.59 1012.98 1013.50 1014.11 1014.65 1015.14 1015.67 1015.97 1016.28 1016.46 1016.55 1016.55 1016.63 1016.59 1017.08 1017.30 1017.68 1017.92 1018.13 1018.61 1018.76
1006.45 1006.40 1006.92 1007.11 1007.50 1007.91 1008.20 1008.46 1009.31 1010.22 1010.78 1011.41 1011.92 1012.38 1013.00 1013.50 1014.06 1014.49 1014.97 1015.46 1015.77 1016.12 1016.29 1016.43 1016.62 1016.90 1017.12 1017.39 1017.43 1017.61 1018.05 1018.30 1018.40
1006.41 1006.77 1007.37 1008.21 1008.08 1007.90 1008.17 1008.69 1009.10 1009.84 1010.48 1011.12 1011.94 1011.89 1012.41 1013.05 1013.58 1014.03 1014.40 1014.79 1015.18 1015.56 1015.94 1016.25 1016.62 1016.97 1017.14 1017.23 1017.34 1017.53 1017.75 1017.98 1018.13
1007.02 1006.94 1008.10 1008.21 1009.43 1008.35 1009.03 1009.45 1009.46 1010.22 1010.39 1010.60 1011.28 1011.65 1011.92 1012.52 1013.14 1013.62 1013.94 1014.29 1014.64 1015.06 1015.49 1015.89 1016.26 1016.57 1016.90 1017.14 1017.22 1017.41 1017.58 1017.72 1017.81
1007.49 1007.43 1007.50 1007.69 1007.94 1008.16 1008.35 1009.51 1009.93 1010.19 1010.72 1010.87 1010.72 1011.44 1011.71 1012.13 1012.65 1013.21 1013.44 1013.76 1014.14 1014.52 1014.97 1015.43 1015.89 1016.29 1016.68 1017.00 1017.08 1017.26 1017.48 1017.64 1017.74
1008.08 1007.90 1007.71 1008.07 1008.25 1008.46 1009.09 1009.82 1009.09 1009.80 1010.60 1011.32 1010.37 1010.94 1011.49 1011.82 1012.13 1012.53 1013.01 1013.32 1013.67 1014.17 1014.62 1015.11 1015.41 1015.76 1016.18 1016.60 1016.78 1016.91 1017.04 1017.23 1017.35
1009.16 1009.08 1009.26 1009.61 1009.52 1009.49 1009.76 1009.95 1010.29 1009.50 1009.62 1011.54 1011.03 1010.74 1011.05 1011.15 1011.55 1011.91 1012.51 1012.90 1013.20 1013.68 1014.23 1014.66 1014.92 1015.26 1015.63 1016.03 1016.50 1016.82 1016.87 1016.75 1016.87
1010.74 1010.17 1010.84 1010.47 1010.32 1010.13 1010.14 1009.93 1009.70 1009.80 1009.70 1010.19 1009.04 1012.67 1011.25 1010.76 1011.35 1011.74 1012.23 1012.88 1013.12 1013.40 1013.94 1014.34 1014.71 1015.12 1015.48 1016.04 1016.59 1016.90 1016.83 1016.75 1016.86
1010.93 1011.27 1011.09 1010.99 1010.85 1010.56 1010.80 1010.62 1010.50 1010.43 1010.38 1010.09 1010.59 1013.37 1012.24 1010.20 1011.05 1011.48 1012.03 1012.61 1013.11 1013.54 1013.80 1014.08 1014.60 1014.92 1015.49 1016.28 1016.80 1017.15 1017.05 1017.05 1017.20
1010.95 1011.08 1011.45 1011.00 1010.84 1010.23 1009.64 1010.85 1010.92 1010.72 1010.88 1011.31 1011.14 1011.73 1010.28 1010.20 1010.44 1011.30 1011.84 1012.42 1013.16 1013.67 1013.91 1014.42 1014.84 1015.43 1016.18 1017.03 1017.80 1017.54 1017.19 1017.11 1017.31
1011.41 1011.74 1011.98 1011.35 1010.83 1009.77 1009.33 1010.97 1011.54 1010.92 1010.48 1010.66 1010.59 1010.67 1009.77 1010.52 1010.53 1011.54 1012.32 1013.09 1013.42 1013.67 1014.21 1015.03 1015.53 1015.95 1016.71 1017.53 1018.30 1018.15 1017.77 1017.46 1017.50
1011.50 1012.16 1012.42 1011.60 1011.29 1011.00 1010.32 1010.82 1011.19 1011.12 1010.71 1010.33 1009.52 1009.97 1010.47 1009.74 1011.06 1011.74 1012.79 1013.87 1014.16 1014.33 1014.77 1015.60 1016.34 1017.18 1017.84 1018.34 1018.72 1018.67 1018.22 1018.12 1018.05
1011.78 1012.23 1012.61 1012.31 1012.44 1011.65 1011.09 1010.29 1011.12 1011.48 1011.34 1010.68 1010.75 1010.74 1010.65 1011.30 1011.33 1012.15 1013.44 1014.23 1014.84 1015.20 1015.68 1016.10 1016.86 1017.55 1018.55 1018.74 1018.97 1019.15 1018.73 1018.52 1018.40
1012.04 1012.83 1013.01 1012.32 1012.44 1012.24 1011.17 1011.95 1010.86 1011.45 1012.22 1012.06 1011.50 1011.40 1011.58 1012.15 1012.22 1012.56 1013.94 1014.14 1015.78 1015.48 1016.74 1016.79 1017.51 1017.49 1018.72 1019.09 1019.27 1019.47 1019.16 1018.97 1018.99
1012.67 1013.47 1013.28 1013.08 1012.96 1012.82 1012.70 1012.46 1012.56 1010.92 1012.79 1012.36 1012.33 1012.72 1012.86 1013.00 1013.26 1013.61 1014.89 1014.51 1016.03 1016.72 1017.03 1017.39 1017.57 1018.22 1018.84 1019.51 1019.41 1019.63 1019.30 1019.44 1019.33
1013.08 1013.56 1013.52 1013.72 1013.56 1013.37 1013.04 1012.73 1012.92 1011.15 1012.72 1013.02 1013.12 1013.46 1013.75 1014.31 1014.65 1014.98 1014.95 1015.60 1016.51 1017.10 1017.44 1017.94 1017.97 1018.29 1018.87 1019.37 1019.47 1020.09 1019.88 1019.65 1019.58
1013.01 1013.53 1013.97 1014.16 1013.99 1013.60 1013.23 1013.26 1012.93 1013.02 1013.07 1013.53 1013.95 1014.37 1014.93 1015.21 1015.29 1015.59 1015.82 1016.81 1017.24 1017.42 1018.14 1018.14 1017.99 1018.46 1018.96 1019.28 1019.81 1019.98 1020.18 1019.87 1019.74
1013.26 1013.77 1014.24 1014.41 1014.45 1014.22 1013.84 1013.75 1013.50 1014.01 1013.43 1014.16 1014.32 1015.06 1015.61 1015.76 1015.96 1016.16 1016.52 1017.23 1017.87 1018.09 1018.43 1018.28 1018.31 1018.56 1018.91 1019.73 1019.91 1020.11 1020.01 1020.02 1019.82
1013.67 1014.12 1014.35 1014.58 1014.59 1014.20 1014.03 1014.42 1013.60 1014.16 1014.04 1014.16 1014.74 1014.84 1016.27 1016.54 1016.65 1016.87 1016.88 1017.26 1017.69 1018.40 1018.89 1018.70 1018.66 1018.91 1019.16 1019.46 1019.56 1020.07 1020.27 1020.17 1020.02
Wind_Speed
12 19 11 18 15 9 21 21 20 19 18 16 14 13 10 8 7 4 5 6 5 4 4 5 5 6 7 6 6 5 4 2 3
13 14 12 15 14 11 20 18 20 21 18 16 16 14 11 9 7 7 6 7 5 4 5 4 6 6 6 5 5 6 5 4 4
6 14 12 16 10 15 18 20 19 20 19 19 18 16 12 10 9 8 7 4 7 5 2 4 6 5 5 5 5 6 6 4 4
7 9 2 10 2 4 5 5 15 18 18 17 15 15 14 12 9 8 7 7 5 5 4 3 5 5 5 5 5 4 3 3 3
3 3 11 15 8 5 5 2 6 8 16 17 16 15 14 13 11 10 8 8 8 7 7 5 6 5 5 4 4 4 4 5 4
4 6 7 9 5 8 9 7 2 4 4 14 15 13 14 14 13 11 12 9 8 7 7 7 6 5 5 5 4 5 5 6 5
5 5 5 1 6 5 3 5 7 8 2 8 15 14 11 14 13 12 11 9 7 8 8 7 7 6 7 6 6 5 4 5 5
8 2 13 13 4 3 3 7 5 4 1 4 8 13 13 12 10 10 8 7 8 7 7 7 7 5 5 6 4 3 3 1 5
11 9 8 7 13 9 2 6 8 9 15 7 7 18 12 9 9 7 7 7 7 7 7 7 7 6 5 7 5 5 6 5 4
5 3 3 5 7 11 11 9 5 6 3 4 2 19 18 12 9 8 8 7 6 6 6 5 5 5 8 7 6 3 6 7 3
4 3 3 2 2 8 17 11 8 1 9 7 7 9 3 4 8 8 6 7 6 4 3 3 2 4 8 8 6 7 5 4 3
3 1 5 4 5 6 11 5 9 5 3 11 16 12 4 5 8 7 5 4 3 3 3 4 6 6 8 9 7 14 11 4 4
5 2 4 6 6 5 5 4 5 3 4 5 6 8 9 10 11 12 11 8 6 5 7 9 7 10 9 12 7 14 13 8 4
7 7 4 4 5 4 6 4 1 4 6 6 5 8 9 10 12 14 11 11 5 8 8 9 9 10 6 7 6 7 11 12 6
7 6 4 7 6 4 7 8 6 8 6 3 7 8 8 9 9 10 8 14 6 9 6 9 7 9 6 4 5 5 10 11 11
8 4 4 5 3 4 5 6 5 15 4 7 9 9 9 9 10 10 7 11 8 6 6 6 7 6 5 3 4 2 8 6 7
6 5 5 4 6 7 7 7 6 12 8 8 10 10 9 6 8 8 8 6 5 5 6 5 5 5 5 3 4 1 1 3 3
8 7 4 1 4 7 9 6 8 7 9 9 10 8 8 7 7 8 8 7 5 5 4 2 5 5 4 4 3 3 2 2 3
6 7 5 4 4 4 6 5 8 6 10 9 10 8 5 4 5 5 6 6 6 12 8 9 11 10 6 3 6 5 5 4 4
8 6 6 6 4 5 7 4 8 6 5 8 7 9 5 4 4 4 5 4 6 6 4 7 8 8 7 4 9 6 3 2 6
Wind_Direction
211 214 174 166 209 194 174 175 173 179 177 176 180 174 183 188 190 181 169 184 187 203 189 197 202 179 166 181 171 187 213 220 230
213 183 177 183 200 179 173 180 177 184 177 183 179 179 180 182 181 182 196 202 203 193 186 170 186 171 166 190 192 197 200 206 231
215 188 189 199 180 183 181 185 181 181 177 180 185 179 181 182 181 181 194 199 187 183 151 130 152 175 175 201 214 214 201 210 231
101 129 18 351 140 141 158 174 175 179 180 178 189 180 179 179 184 188 188 174 183 184 158 158 160 179 192 207 218 219 205 233 235
223 226 139 173 169 105 26 106 99 182 186 178 183 187 178 180 185 195 194 180 182 189 191 185 188 197 197 218 217 203 209 223 244
204 234 212 155 162 173 175 215 130 127 211 196 181 187 182 185 189 192 199 188 191 185 183 187 193 187 194 205 213 217 217 221 225
211 244 263 307 188 215 213 296 193 147 203 262 186 187 185 184 185 190 193 191 186 171 167 179 192 196 193 196 204 205 200 207 209
293 59 36 8 348 290 234 159 213 181 206 300 305 185 189 184 183 172 175 171 170 160 169 189 197 189 198 202 114 81 64 23 177
20 52 31 45 28 350 285 223 187 192 200 221 11 340 216 165 172 165 169 176 172 163 172 176 163 165 107 87 88 76 86 86 71
75 20 31 61 66 52 11 279 193 166 79 149 188 267 269 162 156 165 169 170 165 177 183 172 171 169 117 112 102 65 73 70 62
112 72 303 68 71 61 54 356 314 259 141 160 219 254 163 120 137 153 151 150 170 191 166 191 164 95 95 92 42 25 73 77 65
79 163 275 339 338 69 92 47 320 352 190 186 190 191 256 106 103 82 78 93 149 126 113 85 78 91 96 91 53 18 359 74 80
99 350 357 18 359 346 94 55 320 20 58 92 91 115 129 109 97 90 69 41 67 82 83 83 79 72 71 85 72 31 39 48 59
64 60 13 33 37 25 337 77 102 69 39 22 99 104 93 98 101 98 100 86 62 70 88 97 91 88 76 74 72 58 61 57 66
73 52 358 37 46 12 24 329 127 90 52 52 61 72 86 93 86 100 108 105 77 89 111 96 101 94 83 82 66 50 47 61 59
100 99 40 37 45 56 41 23 316 97 27 80 82 79 71 95 94 88 114 101 106 104 102 101 103 100 91 65 67 26 54 34 46
130 123 92 87 82 70 69 61 31 75 81 82 88 90 88 97 109 110 90 90 108 109 88 106 105 111 110 127 119 63 208 105 350
138 126 122 113 80 85 69 76 75 67 79 87 87 85 87 83 86 89 83 60 45 90 64 37 105 103 122 118 126 179 174 91 72
103 108 114 93 93 98 98 100 97 90 97 99 106 99 96 100 110 103 102 109 86 51 73 59 72 69 101 74 94 132 112 88 49
128 124 120 128 129 94 71 59 93 113 121 105 94 97 82 79 81 95 115 113 115 114 52 67 71 76 85 114 151 151 122 32 346